Chicago Lansing, IL

8:51 PM CDT on July 24, 2017 (GMT -0500)
Lansing Municipal

Weather History for KIGQ - September, 2013

Change the Weather History Date:

Monday, September 9, 2013

  Actual Average (KGYY) Record (KGYY)
Temperature  
Mean Temperature 80 °F -  
Max Temperature 94 °F 79 °F 97 °F (1960)
Min Temperature 65 °F 55 °F 40 °F (1975)
Cooling Degree Days 14    
Growing Degree Days 30 (Base 50)    
Moisture  
Dew Point 67 °F    
Average Humidity 68    
Maximum Humidity 91    
Minimum Humidity 44    
Precipitation  
Precipitation 0.00 in - - ()
Sea Level Pressure  
Sea Level Pressure 29.91 in    
Wind  
Wind Speed 7 mph (South)    
Max Wind Speed 13 mph    
Max Gust Speed 17 mph    
Visibility 9 miles    
Events      
Averages and records for this station are not official NWS values.
T = Trace of Precipitation, MM = Missing Value Source: NWS Daily Summary

Daily Weather History Graph

Daily Weather History Graph

Search for Another Location

Airport or City:

Trip Planner

Search our weather history database for the weather conditions in past years. The results will help you decide how hot, cold, wet, or windy it might be!

Date:

Astronomy

Sep. 09, 2013 Rise Set
Actual Time 6:24 AM CDT 7:09 PM CDT
Civil Twilight 5:56 AM CDT 7:37 PM CDT
Nautical Twilight 5:23 AM CDT 8:10 PM CDT
Astronomical Twilight 4:48 AM CDT 8:44 PM CDT
Moon 10:49 AM CDT (9/9) 9:21 PM CDT (9/9)
Length of Visible Light 13h 40m
Length of Day
12h 44m
Waxing Crescent, 19% of the Moon is Illuminated
Sep 9
Waxing Crescent
Sep 12
First Quarter
Sep 19
Full
Sep 26
Last Quarter
Oct 4
New

Hourly Weather History & Observations

Time (CDT) Temp. Heat Index Dew Point Humidity Pressure Visibility Wind Dir Wind Speed Gust Speed Precip Events Conditions
12:15 AM 70.0 °F - 63.0 °F 78% 29.99 in 10.0 mi SSE 8.1 mph - N/A   Clear
12:35 AM 69.8 °F - 63.0 °F 79% 29.99 in 10.0 mi SE 5.8 mph - N/A   Clear
12:55 AM 69.6 °F - 62.8 °F 79% 29.99 in 10.0 mi SE 6.9 mph - N/A   Clear
1:15 AM 69.1 °F - 62.8 °F 80% 29.98 in 10.0 mi SE 5.8 mph - N/A   Clear
1:35 AM 69.1 °F - 63.0 °F 81% 29.98 in 10.0 mi SSE 5.8 mph - N/A   Clear
1:55 AM 68.9 °F - 62.8 °F 81% 29.98 in 10.0 mi SE 5.8 mph - N/A   Clear
2:15 AM 68.9 °F - 63.0 °F 81% 29.98 in 10.0 mi SSE 4.6 mph - N/A   Clear
2:35 AM 68.5 °F - 62.8 °F 82% 29.97 in 10.0 mi SSE 5.8 mph - N/A   Clear
2:55 AM 68.2 °F - 62.8 °F 83% 29.97 in 10.0 mi SSE 6.9 mph - N/A   Clear
3:15 AM 68.0 °F - 62.8 °F 83% 29.96 in 10.0 mi SSE 6.9 mph - N/A   Clear
3:35 AM 68.0 °F - 62.8 °F 83% 29.96 in 10.0 mi SSE 5.8 mph - N/A   Clear
3:55 AM 67.5 °F - 62.8 °F 85% 29.96 in 10.0 mi SSE 5.8 mph - N/A   Clear
4:15 AM 67.5 °F - 62.8 °F 85% 29.95 in 10.0 mi SSE 6.9 mph - N/A   Clear
4:35 AM 67.3 °F - 62.8 °F 85% 29.95 in 10.0 mi SSE 3.5 mph - N/A   Clear
4:55 AM 67.1 °F - 63.0 °F 87% 29.95 in 10.0 mi SSE 5.8 mph - N/A   Clear
5:15 AM 66.9 °F - 63.1 °F 88% 29.94 in 10.0 mi SSE 5.8 mph - N/A   Clear
5:35 AM 66.6 °F - 63.1 °F 89% 29.94 in 7.0 mi SSE 4.6 mph - N/A   Clear
5:55 AM 66.4 °F - 63.1 °F 89% 29.94 in 7.0 mi South 4.6 mph - N/A   Clear
6:15 AM 65.5 °F - 62.8 °F 91% 29.94 in 7.0 mi South 4.6 mph - N/A   Clear
6:35 AM 66.6 °F - 63.7 °F 90% 29.94 in 7.0 mi SE 4.6 mph - N/A   Clear
6:55 AM 67.1 °F - 63.9 °F 89% 29.95 in 5.0 mi SSE 4.6 mph - N/A   Clear
7:15 AM 67.1 °F - 64.2 °F 90% 29.95 in 5.0 mi SSE 4.6 mph - N/A   Clear
7:35 AM 68.4 °F - 65.1 °F 89% 29.95 in 5.0 mi SSE 4.6 mph - N/A   Mostly Cloudy
7:55 AM 69.3 °F - 65.5 °F 88% 29.95 in 5.0 mi SSE 5.8 mph - N/A   Scattered Clouds
8:15 AM 70.9 °F - 66.4 °F 86% 29.95 in 5.0 mi South 6.9 mph - N/A   Haze
8:35 AM 72.5 °F - 67.5 °F 84% 29.95 in 7.0 mi South 6.9 mph - N/A   Scattered Clouds
8:55 AM 72.1 °F - 67.1 °F 84% 29.95 in 7.0 mi South 8.1 mph - N/A   Clear
9:15 AM 74.7 °F - 68.0 °F 80% 29.95 in 7.0 mi South 9.2 mph - N/A   Clear
9:35 AM 76.6 °F - 68.0 °F 75% 29.95 in 10.0 mi SSW 10.4 mph - N/A   Clear
9:55 AM 77.7 °F - 68.7 °F 74% 29.94 in 10.0 mi South 10.4 mph - N/A   Clear
10:15 AM 79.0 °F - 69.1 °F 72% 29.93 in 10.0 mi South 8.1 mph - N/A   Clear
10:35 AM 81.5 °F 84.9 °F 69.6 °F 67% 29.93 in 10.0 mi South 8.1 mph - N/A   Clear
10:55 AM 82.6 °F 86.4 °F 69.6 °F 65% 29.93 in 10.0 mi SSW 10.4 mph - N/A   Clear
11:15 AM 83.7 °F 87.7 °F 69.8 °F 63% 29.92 in 10.0 mi SSE 9.2 mph - N/A   Clear
11:35 AM 85.5 °F 89.4 °F 69.3 °F 58% 29.92 in 10.0 mi SSW 9.2 mph - N/A   Clear
11:55 AM 86.4 °F 90.7 °F 69.6 °F 57% 29.91 in 10.0 mi South 10.4 mph - N/A   Clear
12:15 PM 87.6 °F 92.3 °F 69.8 °F 55% 29.91 in 10.0 mi South 12.7 mph - N/A   Clear
12:35 PM 88.5 °F 93.1 °F 69.6 °F 53% 29.90 in 10.0 mi SSW 9.2 mph 16.1 mph N/A   Clear
12:55 PM 89.2 °F 94.5 °F 69.8 °F 53% 29.90 in 10.0 mi South 6.9 mph - N/A   Clear
1:15 PM 90.3 °F 95.7 °F 69.8 °F 51% 29.89 in 10.0 mi SSW 8.1 mph - N/A   Clear
1:35 PM 90.7 °F 95.9 °F 69.6 °F 50% 29.89 in 10.0 mi SW 10.4 mph - N/A   Clear
1:55 PM 91.4 °F 96.8 °F 69.8 °F 49% 29.89 in 10.0 mi SW 11.5 mph - N/A   Clear
2:15 PM 91.9 °F 97.4 °F 69.8 °F 48% 29.88 in 10.0 mi SW 10.4 mph - N/A   Clear
2:55 PM 92.5 °F 97.9 °F 69.6 °F 47% 29.86 in 10.0 mi SSW 10.4 mph 16.1 mph N/A   Clear
3:15 PM 92.7 °F 98.3 °F 69.8 °F 47% 29.86 in 10.0 mi South 12.7 mph 17.3 mph N/A   Clear
3:35 PM 93.0 °F 98.4 °F 69.4 °F 46% 29.85 in 10.0 mi SSW 10.4 mph - N/A   Clear
3:55 PM 94.1 °F 99.5 °F 69.1 °F 44% 29.85 in 10.0 mi SW 11.5 mph - N/A   Clear
4:15 PM 93.6 °F 99.0 °F 69.3 °F 45% 29.85 in 10.0 mi SW 11.5 mph - N/A   Clear
4:35 PM 93.4 °F 98.6 °F 69.1 °F 45% 29.85 in 10.0 mi SSW 9.2 mph - N/A   Clear
4:55 PM 93.2 °F 98.3 °F 69.1 °F 45% 29.85 in 10.0 mi SW 9.2 mph - N/A   Clear
5:15 PM 93.2 °F 98.3 °F 68.9 °F 45% 29.85 in 10.0 mi SSW 10.4 mph - N/A   Clear
5:35 PM 92.8 °F 97.6 °F 68.5 °F 45% 29.85 in 10.0 mi SSW 10.4 mph - N/A   Clear
5:55 PM 92.3 °F 97.0 °F 68.5 °F 46% 29.85 in 10.0 mi SW 11.5 mph - N/A   Clear
6:15 PM 91.6 °F 95.2 °F 67.5 °F 45% 29.85 in 10.0 mi SW 9.2 mph - N/A   Clear
6:35 PM 90.3 °F 93.9 °F 67.3 °F 47% 29.85 in 10.0 mi SW 9.2 mph - N/A   Clear
6:55 PM 88.7 °F 92.6 °F 68.2 °F 51% 29.85 in 10.0 mi SW 6.9 mph - N/A   Clear
7:15 PM 86.5 °F 90.7 °F 68.9 °F 56% 29.86 in 10.0 mi SW 5.8 mph - N/A   Clear
7:35 PM 84.2 °F 88.1 °F 69.6 °F 61% 29.86 in 10.0 mi SW 5.8 mph - N/A   Clear
7:55 PM 82.8 °F 86.7 °F 70.0 °F 65% 29.87 in 10.0 mi SSW 4.6 mph - N/A   Clear
8:15 PM 83.1 °F 87.1 °F 70.0 °F 64% 29.87 in 10.0 mi SW 6.9 mph - N/A   Clear
8:35 PM 84.7 °F 89.1 °F 69.8 °F 61% 29.88 in 10.0 mi SW 9.2 mph - N/A   Clear
8:55 PM 84.4 °F 88.2 °F 69.1 °F 60% 29.88 in 10.0 mi SW 9.2 mph - N/A   Clear
9:15 PM 84.2 °F 87.9 °F 68.9 °F 60% 29.89 in 10.0 mi SW 8.1 mph - N/A   Clear
9:35 PM 83.3 °F 86.9 °F 68.9 °F 62% 29.89 in 10.0 mi SW 9.2 mph - N/A   Clear
9:55 PM 82.6 °F 85.7 °F 68.4 °F 62% 29.89 in 10.0 mi SW 8.1 mph - N/A   Clear
10:15 PM 81.0 °F 83.9 °F 68.5 °F 66% 29.90 in 10.0 mi SW 5.8 mph - N/A   Clear
10:35 PM 80.8 °F 83.8 °F 68.9 °F 67% 29.91 in 10.0 mi SW 6.9 mph - N/A   Clear
10:55 PM 80.6 °F 83.5 °F 68.9 °F 67% 29.91 in 10.0 mi SW 6.9 mph - N/A   Clear
11:15 PM 79.7 °F - 68.9 °F 69% 29.91 in 10.0 mi SW 6.9 mph - N/A   Clear
11:35 PM 79.2 °F - 68.9 °F 71% 29.91 in 10.0 mi SW 6.9 mph - N/A   Clear
11:55 PM 78.8 °F - 68.9 °F 72% 29.91 in 10.0 mi SW 6.9 mph - N/A   Clear